This demonstration page uses our WeatherBlox Daily Observations layout. Learn more.

Left ArrowRight Arrow

53.60534, 11.34579

Hourly Observations for May 5, 2021

Temp ( °F °C ) Dew Point ( °F °C ) Humidity (%) Winds ( mph kmh ) Pressure ( in mb ) Visibility ( mi km ) Precip ( " mm )
7:50 am 07:50 Mostly Cloudy 45 7 37 3 76 76 SSW 21 33 29.27 991 30 48.2802 N/A
8:20 am 08:20 Mostly Cloudy 45 7 37 3 76 76 SSW 21 33 29.27 991 30 48.2802 N/A
8:50 am 08:50 Mostly Cloudy with Drizzle 45 7 37 3 76 76 SSW 21 33 29.27 991 30 48.2802 N/A
9:20 am 09:20 Mostly Cloudy with Light Rain 45 7 37 3 76 76 SSW 23 37 29.27 991 30 48.2802 N/A
9:50 am 09:50 Mostly Cloudy with Light Rain 43 6 39 4 87 87 SSW 23 37 29.27 991 30 48.2802 N/A
10:20 am 10:20 Mostly Cloudy with Light Rain 43 6 39 4 87 87 SSW 24 39 29.3 992 30 48.2802 N/A
10:50 am 10:50 Mostly Cloudy with Drizzle 45 7 39 4 81 81 SSW 24 39 29.3 992 30 48.2802 N/A
11:20 am 11:20 Mostly Cloudy with Light Rain 45 7 39 4 81 81 SSW 24 39 29.3 992 30 48.2802 N/A
11:50 am 11:50 Mostly Cloudy with Light Rain 45 7 39 4 81 81 SSW 22 35 29.32 993 30 48.2802 N/A
12:20 pm 12:20 Mostly Cloudy with Light Rain 45 7 39 4 81 81 SSW 24 39 29.32 993 30 48.2802 N/A
12:50 pm 12:50 Mostly Cloudy with Light Rain 45 7 41 5 87 87 SSW 21 33 29.32 993 30 48.2802 N/A
1:20 pm 13:20 Mostly Cloudy 46 8 39 4 76 76 SSW 23 37 29.32 993 30 48.2802 N/A
1:50 pm 13:50 Mostly Cloudy 46 8 39 4 76 76 SSW 24 39 29.32 993 30 48.2802 N/A
2:20 pm 14:20 Mostly Cloudy with Light Rain 45 7 41 5 87 87 SW 23 37 29.35 994 30 48.2802 N/A
2:50 pm 14:50 Mostly Cloudy 46 8 41 5 82 82 SSW 21 33 29.35 994 30 48.2802 N/A
3:20 pm 15:20 Mostly Cloudy 45 7 41 5 87 87 SW 21 33 29.35 994 30 48.2802 N/A
3:50 pm 15:50 Mostly Cloudy with Showers Nearby 46 8 41 5 82 82 SW 23 37 29.38 995 30 48.2802 N/A
4:20 pm 16:20 Mostly Cloudy 45 7 41 5 87 87 SW 24 39 29.38 995 30 48.2802 N/A
4:50 pm 16:50 Mostly Cloudy with Showers Nearby 46 8 41 5 82 82 SW 25 41 29.38 995 30 48.2802 N/A
5:20 pm 17:20 Mostly Cloudy with Light Showers 45 7 41 5 87 87 SW 18 30 29.41 996 30 48.2802 N/A
5:50 pm 17:50 Mostly Cloudy with Light Rain 45 7 41 5 87 87 WSW 18 30 29.44 997 30 48.2802 N/A
6:20 pm 18:20 Mostly Cloudy 45 7 41 5 87 87 WSW 20 31 29.44 997 30 48.2802 N/A
6:50 pm 18:50 Mostly Cloudy with Drizzle 45 7 39 4 81 81 WSW 20 31 29.44 997 30 48.2802 N/A
7:20 pm 19:20 Mostly Cloudy with Drizzle 45 7 39 4 81 81 WSW 18 30 29.47 998 30 48.2802 N/A
7:50 pm 19:50 Mostly Cloudy with Light Rain 43 6 39 4 87 87 SW 18 30 29.47 998 30 48.2802 N/A
8:20 pm 20:20 Mostly Cloudy 43 6 39 4 87 87 WSW 16 26 29.5 999 30 48.2802 N/A
8:50 pm 20:50 Mostly Cloudy with Light Rain 43 6 39 4 87 87 WSW 17 28 29.5 999 30 48.2802 N/A
9:20 pm 21:20 Mostly Cloudy 43 6 37 3 81 81 WSW 18 30 29.53 1000 30 48.2802 N/A
9:50 pm 21:50 Mostly Cloudy with Light Rain 43 6 39 4 87 87 WSW 13 20 29.53 1000 30 48.2802 N/A

Powered by AerisWeather